This is the latest recevied weather packets stored in our database for station/object AI5YA-13. If no packets are shown the sender has not sent any weather packets the latest 10 day(s).
| Time | Temp. | Humidity | Pressure | Rain* | Wind** | Luminosity | Snow |
|---|---|---|---|---|---|---|---|
| 1777726183 | 8.89° C | 90% | 1023.7 hPa | 0 mm | - | 32 W/m² | - |
| 1777725880 | 8.33° C | 90% | 1023.6 hPa | 0 mm | - | 28 W/m² | - |
| 1777725578 | 8.33° C | 90% | 1023.7 hPa | 0 mm | - | 23 W/m² | - |
| 1777725275 | 8.33° C | 90% | 1023.4 hPa | 0 mm | - | 20 W/m² | - |
| 1777724972 | 7.78° C | 90% | 1023.5 hPa | 0 mm | - | 18 W/m² | - |
| 1777724668 | 7.78° C | 90% | 1023.4 hPa | 0 mm | - | 16 W/m² | - |
| 1777724366 | 7.78° C | 90% | 1023.2 hPa | 0 mm | - | 11 W/m² | - |
| 1777724063 | 7.78° C | 90% | 1023.3 hPa | 0 mm | - | 6 W/m² | - |
| 1777723761 | 7.78° C | 90% | 1023.2 hPa | 0 mm | - | 3 W/m² | - |
| 1777723456 | 7.78° C | 90% | 1023.2 hPa | 0 mm | - | 1 W/m² | - |
| 1777723154 | 7.78° C | 90% | 1023.1 hPa | 0 mm | - | 0 W/m² | - |
| 1777722851 | 7.78° C | 89% | 1023.2 hPa | 0 mm | - | 0 W/m² | - |
| 1777722547 | 7.78° C | 89% | 1023.1 hPa | 0 mm | - | 0 W/m² | - |
| 1777722244 | 7.78° C | 89% | 1023 hPa | 0 mm | - | 0 W/m² | - |
| 1777721941 | 7.78° C | 89% | 1023.2 hPa | 0 mm | - | 0 W/m² | - |
| 1777721639 | 7.78° C | 89% | 1023.5 hPa | 0 mm | - | 0 W/m² | - |
| 1777721337 | 7.78° C | 89% | 1023.2 hPa | 0 mm | - | 0 W/m² | - |
| 1777721034 | 7.78° C | 89% | 1023.1 hPa | 0 mm | - | 0 W/m² | - |
| 1777720731 | 7.78° C | 89% | 1023.3 hPa | 0 mm | - | 0 W/m² | - |
| 1777720428 | 7.78° C | 89% | 1023.3 hPa | 0 mm | - | 0 W/m² | - |
| 1777720126 | 8.33° C | 89% | 1023.1 hPa | 0 mm | - | 0 W/m² | - |
| 1777719824 | 8.33° C | 89% | 1023.4 hPa | 0 mm | - | 0 W/m² | - |
| 1777719521 | 8.33° C | 88% | 1023.1 hPa | 0 mm | - | 0 W/m² | - |
| 1777719218 | 8.33° C | 88% | 1023.2 hPa | 0 mm | - | 0 W/m² | - |
| 1777718916 | 8.33° C | 88% | 1023.2 hPa | 0 mm | - | 0 W/m² | - |
* Rain latest hour (hover to see other rain measurements)
** Current wind speed in m/s (hover to see current wind gust speed)